NW Arkansas Airport, AR

6:22 AM CDT on September 21, 2017 (GMT -0500)
Northwest Arkansas Regional

Weather History for KXNA - May, 2013

Change the Weather History Date:

Wednesday, May 15, 2013

  Actual Average (KVBT) Record (KVBT)
Temperature  
Mean Temperature 68 °F -  
Max Temperature 75 °F 76 °F 89 °F (1957)
Min Temperature 62 °F 51 °F 35 °F (1973)
Cooling Degree Days 4    
Growing Degree Days 18 (Base 50)    
Moisture  
Dew Point 61 °F    
Average Humidity 83    
Maximum Humidity 100    
Minimum Humidity 60    
Precipitation  
Precipitation 0.59 in - - ()
Sea Level Pressure  
Sea Level Pressure 29.95 in    
Wind  
Wind Speed 9 mph (SSW)    
Max Wind Speed 21 mph    
Max Gust Speed 29 mph    
Visibility 8 miles    
Events Fog , Rain    
Averages and records for this station are not official NWS values.
T = Trace of Precipitation, MM = Missing Value Source: NWS Daily Summary

Daily Weather History Graph

Daily Weather History Graph

Search for Another Location

Airport or City:

Trip Planner

Search our weather history database for the weather conditions in past years. The results will help you decide how hot, cold, wet, or windy it might be!

Date:

Astronomy

May. 15, 2013 Rise Set
Actual Time 6:10 AM CDT 8:17 PM CDT
Civil Twilight 5:41 AM CDT 8:45 PM CDT
Nautical Twilight 5:06 AM CDT 9:20 PM CDT
Astronomical Twilight 4:29 AM CDT 9:58 PM CDT
Moon 10:45 AM CDT (5/15) 12:05 AM CDT (5/15)
Length of Visible Light 15h 03m
Length of Day
14h 06m
Waxing Crescent, 27% of the Moon is Illuminated
May 15
Waxing Crescent
May 17
First Quarter
May 24
Full
May 31
Last Quarter
Jun 8
New

Hourly Weather History & Observations

Time (CDT) Temp. Dew Point Humidity Pressure Visibility Wind Dir Wind Speed Gust Speed Precip Events Conditions
12:53 AM 64.0 °F 50.0 °F 60% 29.98 in 10.0 mi SSW 5.8 mph - N/A   Clear
1:53 AM 63.0 °F 48.9 °F 60% 29.97 in 10.0 mi SSW 5.8 mph - N/A   Clear
2:53 AM 62.1 °F 48.9 °F 62% 29.97 in 10.0 mi South 6.9 mph - N/A   Clear
3:53 AM 62.1 °F 50.0 °F 65% 29.96 in 10.0 mi South 8.1 mph - N/A   Clear
4:53 AM 63.0 °F 50.0 °F 63% 29.96 in 10.0 mi South 5.8 mph - N/A   Clear
5:53 AM 63.0 °F 52.0 °F 67% 29.97 in 10.0 mi SSW 10.4 mph - N/A   Clear
6:53 AM 64.9 °F 54.0 °F 68% 29.97 in 10.0 mi South 11.5 mph - N/A   Clear
7:53 AM 66.9 °F 57.0 °F 70% 29.98 in 10.0 mi South 11.5 mph - N/A   Clear
8:53 AM 70.0 °F 61.0 °F 73% 29.98 in 10.0 mi SSW 10.4 mph - N/A   Clear
9:53 AM 72.0 °F 63.0 °F 73% 29.97 in 10.0 mi SSW 18.4 mph 26.5 mph N/A   Clear
10:53 AM 73.0 °F 63.0 °F 71% 29.97 in 10.0 mi SSW 15.0 mph 21.9 mph N/A   Clear
11:53 AM 75.0 °F 64.0 °F 69% 29.97 in 10.0 mi SSW 10.4 mph 19.6 mph N/A   Scattered Clouds
12:07 PM 73.4 °F 64.4 °F 73% 30.01 in 10.0 mi SSW 15.0 mph 20.7 mph N/A   Mostly Cloudy
12:53 PM 72.0 °F 64.0 °F 76% 29.98 in 10.0 mi SSW 12.7 mph 19.6 mph N/A   Overcast
1:25 PM 73.4 °F 64.4 °F 73% 29.99 in 10.0 mi SSW 11.5 mph - N/A   Scattered Clouds
1:53 PM 72.0 °F 64.0 °F 76% 29.94 in 10.0 mi SSW 9.2 mph - N/A   Scattered Clouds
2:16 PM 71.6 °F 64.4 °F 78% 29.98 in 10.0 mi SSW 12.7 mph - N/A   Mostly Cloudy
2:53 PM 71.1 °F 64.0 °F 78% 29.94 in 10.0 mi SSW 5.8 mph - N/A   Mostly Cloudy
3:41 PM 66.2 °F 64.4 °F 94% 29.98 in 1.2 mi WSW 20.7 mph 28.8 mph 0.14 in Rain Rain
3:47 PM 62.6 °F 62.6 °F 100% 29.98 in 0.5 mi WSW 13.8 mph 28.8 mph 0.42 in Fog , Rain Heavy Rain
3:48 PM 62.6 °F 62.6 °F 100% 29.98 in 0.2 mi WSW 13.8 mph 28.8 mph 0.44 in Fog , Rain Heavy Rain
3:51 PM 64.4 °F 62.6 °F 94% 29.97 in 0.5 mi WSW 12.7 mph 20.7 mph 0.47 in Fog , Rain Heavy Rain
3:53 PM 64.0 °F 63.0 °F 96% 29.95 in 0.5 mi WSW 12.7 mph 20.7 mph 0.48 in Fog , Rain Heavy Rain
4:00 PM 64.4 °F 62.6 °F 94% 29.97 in 2.0 mi SW 18.4 mph 25.3 mph 0.03 in Rain Rain
4:03 PM 64.4 °F 62.6 °F 94% 29.97 in 3.0 mi WSW 13.8 mph 25.3 mph 0.04 in Rain Rain
4:53 PM 64.0 °F 64.0 °F 100% 29.93 in 10.0 mi South 4.6 mph - 0.11 in   Overcast
5:02 PM 64.4 °F 64.4 °F 100% 29.96 in 10.0 mi South 6.9 mph - N/A   Overcast
5:53 PM 66.0 °F 64.9 °F 96% 29.90 in 10.0 mi SE 5.8 mph - N/A   Scattered Clouds
6:05 PM 66.2 °F 64.4 °F 94% 29.92 in 10.0 mi Calm Calm - N/A   Mostly Cloudy
6:35 PM 68.0 °F 64.4 °F 88% 29.92 in 10.0 mi SE 8.1 mph - N/A   Mostly Cloudy
6:43 PM 66.2 °F 64.4 °F 94% 29.91 in 10.0 mi SE 8.1 mph - N/A   Mostly Cloudy
6:53 PM 66.9 °F 64.0 °F 90% 29.89 in 10.0 mi SSE 5.8 mph - N/A   Mostly Cloudy
7:53 PM 66.0 °F 64.9 °F 96% 29.90 in 10.0 mi Calm Calm - N/A   Overcast
8:28 PM 66.2 °F 64.4 °F 94% 29.93 in 10.0 mi Calm Calm - N/A   Overcast
8:53 PM 66.0 °F 64.9 °F 96% 29.90 in 10.0 mi Calm Calm - N/A   Overcast
9:53 PM 66.0 °F 64.0 °F 93% 29.90 in 9.0 mi South 3.5 mph - 0.00 in   Scattered Clouds
10:53 PM 64.0 °F 63.0 °F 96% 29.87 in 7.0 mi SSE 5.8 mph - N/A   Scattered Clouds
11:53 PM 63.0 °F 62.1 °F 97% 29.86 in 6.0 mi South 9.2 mph - N/A   Clear